Hourly Data Report for May 03, 2012

All times are specified in Local Standard Time (LST). Add 1 hour to adjust for Daylight Saving Time where and when it is observed.

GANDER INTL A
NEWFOUNDLAND

48°56'13.000" N
54°34'05.000" W
151.20 m
8401703
71803
YQX

Download Data

Hourly Data (May 2012)
Hourly Data Report for May 3, 2012
Temp Definition
°C
Dew Point Temp Definition
°C
Rel Hum Definition
%
Wind Dir Definition
10's deg

Wind Spd Definition
km/h
Visibility Definition
km
Stn Press Definition
kPa
Hmdx Definition


Wind Chill Definition


Weather Definition


TIME
00:30 Legend Double Dagger 0.7 0.3 97 35 34 2.8 99.52     Rain,Fog
01:30 Legend Double Dagger 0.9 0.5 97 35 29 3.2 99.45     Rain,Fog
02:30 Legend Double Dagger 1.0 0.6 97 35 27 4.0 99.45     Rain,Fog
03:30 Legend Double Dagger 1.3 0.9 97 36 27 4.0 99.41     Rain,Fog
04:30 Legend Double Dagger 1.5 1.1 97 36 27 3.2 99.42     Rain,Fog
05:30 Legend Double Dagger 2.0 1.6 97 1 21 0.8 99.49     Rain,Fog
06:30 Legend Double Dagger 2.5 2.2 98 2 20 0.8 99.54     Rain,Fog
07:30 Legend Double Dagger 3.1 2.8 98 2 15 2.4 99.57     Rain,Fog
08:30 Legend Double Dagger 3.5 3.2 98 3 22 2.4 99.61     Drizzle,Fog
09:30 Legend Double Dagger 3.8 3.2 96 5 23 10.0 99.66     Drizzle
10:30 Legend Double Dagger 4.5 2.7 88 5 24 10.0 99.67     LegendNANA
11:30 Legend Double Dagger 5.7 2.5 80 5 25 10.0 99.69     Mostly Cloudy
12:30 Legend Double Dagger 5.8 1.2 72 9 25 10.0 99.70     LegendNANA
13:30 Legend Double Dagger 4.9 1.2 77 9 18 10.0 99.71     LegendNANA
14:30 Legend Double Dagger 4.2 -0.6 71 9 25 10.0 99.76     Cloudy
15:30 Legend Double Dagger 4.1 0.1 75 6 18 10.0 99.78     Rain Showers
16:30 Legend Double Dagger 4.3 0.5 76 9 24 10.0 99.84     LegendNANA
17:30 Legend Double Dagger 2.6 0.0 83 8 25 10.0 99.90     Mostly Cloudy
18:30 Legend Double Dagger 1.7 -0.4 86 7 22 10.0 99.97     LegendNANA
19:30 Legend Double Dagger 1.2 -0.4 89 6 12 10.0 100.03     LegendNANA
20:30 Legend Double Dagger 1.3 -0.2 90 5 15 10.0 100.10     Cloudy
21:30 Legend Double Dagger 1.6 0.1 90 6 17 10.0 100.14     Rain Showers
22:30 Legend Double Dagger 1.1 0.2 94 4 14 10.0 100.16     Rain Showers
23:30 Legend Double Dagger 1.3 0.6 95 3 13 10.0 100.14     Cloudy

Notes on Data Quality.

Legend

  • E = Estimated
  • M = Missing
  • NA = Not Available
  • ‡ = Partner data that is not subject to review by the National Climate Archives
Date modified: